{"data":{"norad_id":37153,"intl_designator":"2010-043B","name":"STRELA 3","alt_names":[],"object_type":"PAYLOAD","status":"ACTIVE","operator":null,"country":"CIS","launch_date":"2010-09-08","launch_site_code":"PLMSC","launch_vehicle":null,"mission":null,"orbit_class":"UNKNOWN","rcs_meters":0.912,"size_class":null,"mass_kg":null,"dimensions":null,"purposes":[],"wikipedia_slug":null,"has_3d_model":false,"image_url":null,"decayed_at":null,"tle_current":{"epoch":"2026-05-25T04:02:03.426144Z","epoch_age_seconds":59987,"freshness":"FRESH","line1":"1 37153U 10043B   26145.16809521  .00000042  00000+0  23855-3 0  9998","line2":"2 37153  82.4560  92.7581 0008336 126.2051 233.9799 12.40791636711511","mean_motion":12.40791636,"eccentricity":0.0008336,"inclination_deg":82.456,"raan_deg":92.7581,"arg_perigee_deg":126.2051,"mean_anomaly_deg":233.9799,"bstar":0.00023855,"rev_number":71151,"period_min":116.05494091193,"perigee_km":1496.6791677055,"apogee_km":1509.8190145967,"semimajor_km":7881.3860911511,"source":"CELESTRAK","updated_at":"2026-05-25T13:37:55.222776Z"}}}